カタログに戻る

STARLINK-30900

運用中通信VLEO
NORAD 58423·PAYLOAD·🇺🇸 United States

打ち上げ Nov 22, 2023 から Cape Canaveral Space Force Station

Loading…

次のパス (今後24時間)

TLE

最新Source: CelesTrak SupGP

元期: Sep 15, 2026, 02:37 UTC

1 58423C 23180X   26258.10951389 -.00065108  00000+0 -23580-2 0  2584
2 58423  43.0006  62.6261 0001523 263.7199 208.8758 15.27613070    19

AllMySatでSTARLINK-30900をリアルタイム追跡

Download on the App Store